Regional Weather Roundup
Issued by NWS

Home | Current Version | Previous Version | Graphics & Text | Print | Product List | Glossary On
Versions: 1 2 3 4 5 6 7 8 9 10 11 12 13 14 15 16 17 18 19 20 21 22 23 24 25 26 27 28 29 30 31 32 33 34 35 36 37 38 39 40 41 42 43 44 45 46 47 48 49 50
000
ASUS43 KLMK 010602
RWRKY
KENTUCKY REGIONAL WEATHER ROUNDUP
NATIONAL WEATHER SERVICE LOUISVILLE KY
200 AM EDT WED OCT 01 2014

NOTE "FAIR" INDICATES FEW OR NO CLOUDS BELOW 12,000 FEET
WITH NO SIGNIFICANT WEATHER AND/OR OBSTRUCTIONS TO VISIBILITY.

KYZ001>023-026-027-061>063-070>075-010700-
WESTERN AND SOUTH CENTRAL KENTUCKY

CITY           SKY/WX    TMP DP  RH WIND       PRES   REMARKS
PADUCAH        CLEAR     59  56  89 CALM      29.90S
HENDERSON      NOT AVBL
OWENSBORO      PTCLDY    67  62  84 CALM      29.94S
HOPKINSVILLE   NOT AVBL
BOWLING GREEN  CLEAR     61  57  87 CALM      29.94R
GLASGOW        PTCLDY    58  56  93 CALM      29.94S
$$

KYZ024-025-028>034-038-045-046-053-010700-
NORTH CENTRAL KENTUCKY

CITY           SKY/WX    TMP DP  RH WIND       PRES   REMARKS
LOUISVILLE/SDF PTCLDY    65  58  78 NE6       29.96R
LOUISVILLE/LOU CLEAR     64  58  80 NE7       29.97R
FORT KNOX      CLEAR     63  59  88 NE5       29.95R
$$

KYZ035>037-039>044-047>052-055>060-089>105-010700-
NORTHEAST KENTUCKY

CITY           SKY/WX    TMP DP  RH WIND       PRES   REMARKS
LEXINGTON      CLEAR     61  57  87 NE6       29.98R
COVINGTON      CLEAR     55  48  77 NE5       29.99S
FRANKFORT      CLEAR     61  57  87 NE3       29.97R
$$

KYZ054-064>069-076>088-106>120-010700-
SOUTHEAST KENTUCKY

CITY           SKY/WX    TMP DP  RH WIND       PRES   REMARKS
JACKSON        CLEAR     64  57  78 CALM      29.96F
LONDON         CLEAR     58  55  90 CALM      29.97R
SOMERSET       CLEAR     59  57  94 CALM      29.97R
MIDDLESBORO    CLEAR     54  54  99 CALM      29.99S
MONTICELLO     CLEAR     54  53  96 CALM      29.97S
$$



USA.gov is the U.S. government's official web portal to all federal, state and local government web resources and services.